Probability
0 0 0 0 0 0 0 0 0 0 0 0 0 0 0 0 0 0 0 0 0 0 0 0 0 0 0 0 0 0 0 0 0 0 0 0 0 0 0 0 0 0 0
0 0 0 0 0 0 0 0 0 0 0 0 0 0 0 0 0 0 0 0 0 0 0 0 0 0 0 0 0 0 0 0 0 0 0 0 0 0 0 0 0 0 0
0 0 0 0 0 0 0 0 0 0 0 0 0 0 0 0 0 0 0 0 0 0 0 0 0 0 0 0 0 0 0 0 0 0 0 0 0 0 0 0 0 0 0
0 0 0 0 0 0 0 0 0 0 0 0 0 0 0 0 0 0 0 0 0 0 0 0 0 0 0 0 0 0 0 0 0 0 0 0 0 0 0 0 0 0 0
0 0 0 0 0 0 0 0 0 0 0 0 0 0 0 0 0 0 0 0 0 0 0 0 0 0 0 0 0 0 0 0 0 0 0 0 0 0 0 0 0 0 0
0 0 0 0 0 0 0 0 0 0 0 0 0 0 0 0 0 0 0 0 0 0 0 0 0 0 0 0 0 0 0 0 0 0 0 0 0 0 0 0 0 0 0
0 0 0 0 0 0 0 0 0 0 0 0 0 0 0 0 0 0 0 0 0 0 0 0 0 0 0 0 0 0 0 0 0 0 0 0 0 0 0 0 0 0 0
0 0 0 0 0 0 0 0 0 0 0 0 0 0 0 0 0 0 0 0 0 0 0 0 0 0 0 0 0 0 0 0 0 0 0 0 0 0 0 0 0 0 0
0 0 0 0 0 0 0 0 0 0 0 0 0 0 0 0 0 0 0 0 0 0 0 0 0 0 0 0 0 0 0 0 0 0 0 0 0 0 0 0 0 0 0
0 0 0 0 0 0 0 0 0 0 0 0 0 0 0 0 0 0 0 0 0 0 0 0 0 0 0 0 0 0 0 0 0 0 0 0 0 0 0 0 0 0 0
0 0 0 0 0 0 0 0 0 0 0 0 0 0 0 0 0 0 0 0 0 0 0 0 0 0 0 0 0 0 0 0 0 0 0 0 0 0 0 0 0 0 0
0 0 0 0 0 0 0 0 0 0 0 0 0 0 0 0 0 0 0 0 0 0 0 0 0 0 0 0 0 0 0 0 0 0 0 0 0 0 0 0 0 0 0
0 0 0 0 0 0 0 0 0 0 0 0 0 0 0 0 0 0 0 0 0 0 0 0 0 0 0 0 0 0 0 0 0 0 0 0 0 0 0 0 0 0 0
0 0 0 0 0 0 0 0 0 0 0 0 0 0 0 0 0 0 0 0 0 0 0 0 0 0 0 0 0 0 0 0 0 0 0 0 0 0 0 0 0 0 0
0 0 0 0 0 0 0 0 0 0 0 0 0 0 0 0 0 0 0 0 0 0 0 0 0 0 0 0 0 0 0 0 0 0 0 0 0 0 0 0 0 0 0
0 0 0 0 0 0 0 0 0 0 0 0 0 0 0 0 0 0 0 0 0 0 0 0 0 0 0 0 0 0 0 0 0 0 0 0 0 0 0 0 0 0 0
0 0 0 0 0 0 0 0 0 0 0 0 0 0 0 0 0 0 0 0 0 0 0 0 0 0 0 0 0 0 0 0 0 0 0 0 0 0 0 0 0 0 0
0 0 0 0 0 0 0 0 0 0 0 0 0 0 0 0 0 0 0 0 0 0 0 0 0 0 0 0 0 0 0 0 0 0 0 0 0 0 0 0 0 0 0
0 0 0 0 0 0 0 0 0 0 0 0 0 0 0 0 0 0 0 0 0 0 0 0 0 0 0 0 0 0 0 0 0 0 0 0 0 0 0 0 0 0 0
0 0 0 0 0 0 0 0 0 0 0 0 0 0 0 0 0 0 0 0 0 0 0 0 0 0 0 0 0 0 0 0 0 0 0 0 0 0 0 0 0 0 0
0 0 0 0 0 0 0 0 0 0 0 0 0 0 0 0 0 0 0 0 0 0 0 0 0 0 0 0 0 0 0 0 0 0 0 0 0 0 0 0 0 0 0
0 0 0 0 0 0 0 0 0 0 0 0 0 0 0 0 0 0 0 0 0 0 0 0 0 0 0 0 0 0 0 0 0 0 0 0 0 0 0 0 0 0 0
0 0 0 0 0 0 0 0 0 0 0 0 0 0 0 0 0 0 0 0 0 0 0 0 0 0 0 0 0 0 0 0 0 0 0 0 0 0 0 0 0 0 0
0 0 0 0 0 0 0 0 0 0 0 0 0 0 0 0 0 0 0 0 0 0 0 0 0 0 0 0 0 0 0 0 0 0 0 0 0 0 0 0 0 0 0
0 0 0 0 0 0 0 0 0 0 0 0 0 0 0 0 0 0 0 0 0 0 0 0 0 0 0 0 0 0 0 0 0 0 0 0 0 0 0 0 0 0 0
0 0 0 0 0 0 0 0 0 0 0 0 0 0 0 0 0 0 0 0 0 0 0 0 0 0 0 0 0 0 0 0 0 0 0 0 0 0 0 0 0 0 0
Wind_Speed
4 3 2 2 2 1 1 1 1 1 2 2 2 2 2 2 2 2 2 5 6 6 7 7 8 8 8 9 10 10 11 11 11 11 11 11 12 12 13 13 13 13 13
5 4 3 2 2 2 2 2 1 1 1 1 2 3 2 2 2 2 2 4 6 7 7 8 8 8 9 9 10 10 10 11 11 11 11 11 12 12 12 13 13 13 14
6 5 4 3 3 2 3 2 2 2 2 2 2 3 2 2 2 2 2 2 3 7 8 8 8 9 9 10 10 10 11 11 11 11 11 11 12 12 12 13 13 14 14
7 5 4 4 3 3 3 2 2 2 2 2 2 2 2 2 2 2 2 3 3 3 6 8 9 9 9 10 10 11 11 11 11 11 11 11 12 12 13 13 14 14 14
8 6 5 4 4 3 3 3 2 2 1 1 1 2 3 2 2 2 3 3 3 3 3 6 9 9 9 10 10 11 11 11 11 11 11 12 12 13 13 14 14 14 15
8 7 5 5 5 4 3 3 3 2 2 1 2 3 3 2 2 2 2 2 2 3 3 3 4 5 9 10 10 11 11 11 11 11 11 12 13 13 14 14 14 15 15
9 8 6 6 5 5 5 5 3 3 2 1 2 2 3 2 2 2 2 2 2 2 2 3 2 2 3 9 10 10 11 11 11 12 12 13 13 14 14 15 15 15 16
10 9 8 7 6 5 5 5 4 3 2 1 2 2 2 3 2 2 2 1 1 2 2 2 2 2 2 2 6 10 10 12 12 13 13 14 15 15 16 16 16 16 16
10 10 10 8 7 7 6 6 5 6 3 1 1 3 3 3 2 2 1 1 1 1 2 2 2 2 2 2 3 7 10 12 13 14 15 15 16 16 17 17 17 17 18
10 10 10 9 8 6 7 6 5 4 5 3 1 1 2 3 2 2 3 2 2 2 2 2 2 2 2 2 4 8 11 12 14 15 16 17 17 18 18 18 18 19 19
9 10 10 9 9 7 7 7 6 5 4 4 4 3 2 1 2 2 3 3 3 2 2 2 2 2 2 2 2 6 11 13 15 16 17 17 18 18 19 19 19 19 20
7 9 9 9 9 7 8 7 7 7 5 4 4 3 4 3 3 3 3 3 3 3 3 2 2 2 2 2 4 9 12 14 16 17 17 17 18 19 20 20 20 20 21
7 10 9 9 8 7 8 7 7 6 6 6 5 3 3 3 3 3 3 2 2 3 3 2 2 2 2 2 3 10 11 15 16 17 17 18 18 19 20 20 20 21 21
10 11 10 10 9 9 8 7 6 6 5 6 6 5 3 3 3 3 4 3 1 2 3 4 2 2 2 2 6 10 7 15 17 18 18 18 19 19 20 20 21 21 21
7 10 11 10 9 9 9 9 6 6 6 5 5 5 3 3 3 3 3 4 4 2 4 3 3 2 2 3 7 5 5 13 18 18 19 19 19 19 20 20 21 21 21
9 11 11 10 10 9 9 8 6 6 6 5 4 5 4 3 3 3 3 3 3 4 4 3 4 3 4 5 9 6 6 16 17 18 19 20 20 20 20 20 21 21 22
11 12 11 11 11 10 9 8 7 8 7 5 5 5 5 4 3 3 3 3 3 3 5 4 3 3 4 5 7 5 6 6 7 17 19 20 20 20 21 21 21 22 22
10 11 11 11 10 10 10 10 9 9 8 8 7 6 5 4 4 3 3 4 4 4 4 6 4 3 5 5 6 6 6 6 6 15 19 20 20 21 21 21 21 21 21
10 10 10 10 10 10 10 9 9 9 8 8 7 7 6 5 5 4 4 4 4 4 4 5 5 3 4 4 4 6 6 6 7 11 16 17 19 20 21 21 21 21 21
10 10 10 9 9 9 9 9 8 8 7 6 6 6 6 7 6 6 5 5 4 4 4 4 5 4 4 4 3 5 6 4 6 7 10 13 16 19 20 21 21 21 20
9 9 9 8 7 7 8 9 8 8 7 6 5 5 6 7 8 6 4 5 4 4 3 4 5 4 4 4 4 4 6 6 6 5 5 6 7 7 9 14 18 19 20
8 8 8 8 8 7 11 14 10 7 7 6 5 4 4 6 8 9 10 9 7 5 4 4 4 5 6 5 5 5 6 6 6 3 3 6 5 6 7 6 14 20 20
8 8 7 8 8 7 12 13 13 7 6 6 5 4 3 4 5 4 7 9 8 10 9 5 5 6 6 5 5 6 5 6 7 5 4 6 4 6 6 9 18 19 18
8 7 7 7 6 6 11 12 12 7 5 5 5 5 4 4 4 4 4 4 5 6 7 5 5 6 6 6 5 5 6 6 5 5 4 5 4 5 7 6 14 15 15
6 6 6 7 6 5 9 11 10 5 4 4 4 4 4 4 7 7 4 4 5 5 8 10 11 10 12 13 10 4 4 5 6 4 3 3 3 4 5 5 7 13 15
6 6 5 5 6 5 8 9 10 4 4 3 2 3 5 5 7 7 4 4 5 5 4 4 6 7 6 7 10 4 3 4 5 4 2 2 3 3 5 3 3 5 7
Wind_Direction
167 166 164 155 155 143 133 117 83 61 54 50 51 52 38 25 17 8 351 19 33 33 31 29 26 25 26 25 21 16 14 8 4 1 358 355 352 350 348 346 343 340 338
168 168 170 169 174 169 156 144 133 103 74 67 51 44 39 26 23 27 24 21 37 45 39 33 29 25 20 18 14 12 7 3 359 357 354 352 350 347 345 342 340 339 337
172 169 171 180 182 163 147 130 115 91 78 63 47 35 34 27 34 43 47 41 32 37 40 37 28 23 16 10 7 5 0 357 353 352 350 349 347 345 342 340 338 336 334
174 170 175 185 172 154 148 138 123 99 76 64 45 24 22 25 35 48 61 58 48 35 30 37 34 23 13 8 3 359 355 351 349 348 347 347 344 341 338 337 336 334 333
176 174 180 178 162 154 151 142 109 115 105 72 55 39 23 25 26 54 66 65 63 57 38 35 35 24 13 5 359 354 350 347 345 344 344 341 339 337 334 333 332 332 330
178 175 174 170 160 153 150 142 124 97 97 100 70 45 21 20 37 50 54 60 61 60 51 42 30 14 10 4 359 352 348 345 343 341 339 337 336 334 331 331 330 329 327
179 176 172 168 167 169 168 154 131 119 91 86 81 30 4 21 48 40 36 56 51 43 45 39 24 12 352 359 356 351 346 343 341 338 336 334 332 330 329 327 326 326 325
180 180 175 174 173 164 159 157 141 130 108 87 116 95 7 342 347 15 13 44 31 17 19 13 1 355 346 343 340 349 343 338 336 334 332 330 327 325 324 324 323 322 321
183 181 180 174 175 171 173 172 160 149 146 112 109 138 148 228 293 320 336 358 348 341 331 327 335 341 342 342 328 336 340 336 333 330 328 326 324 322 320 321 319 318 318
183 182 178 176 176 174 172 172 165 154 142 152 133 96 139 157 160 297 310 313 314 293 301 311 320 325 335 334 336 339 338 335 330 327 324 322 320 318 317 317 317 315 314
184 182 178 175 175 174 172 165 161 160 154 154 159 152 133 96 126 166 267 305 319 293 284 284 287 299 313 323 320 327 337 333 328 324 322 319 318 316 315 314 314 313 311
182 183 179 178 176 172 172 171 167 167 164 155 157 157 160 163 180 176 215 259 284 291 295 285 268 269 281 298 316 329 331 328 325 322 319 317 316 314 312 311 311 310 308
185 188 181 179 176 174 170 164 165 170 167 164 168 174 176 175 161 162 173 221 266 291 304 295 260 257 273 284 302 318 321 322 321 318 315 314 313 311 310 309 309 307 306
189 182 179 178 174 170 168 164 163 170 166 170 173 171 174 183 170 168 168 164 254 295 288 275 286 258 266 277 288 308 309 313 314 312 311 310 309 309 308 308 307 305 304
175 173 175 174 172 170 169 165 169 171 166 173 174 176 177 183 179 180 170 163 169 243 276 269 276 279 269 272 288 291 286 300 307 309 308 307 306 306 307 306 306 304 303
169 169 172 173 171 172 170 167 165 165 164 171 169 173 184 182 180 180 183 183 179 190 246 259 253 264 277 285 293 295 287 301 306 307 307 306 304 304 305 304 304 303 303
170 173 175 174 174 174 172 171 170 167 170 172 174 181 194 181 182 188 186 190 199 190 239 268 253 265 271 276 289 288 284 283 288 301 304 303 303 303 304 304 305 304 303
174 174 173 173 176 176 175 176 176 174 176 181 185 184 197 186 195 195 196 207 212 207 220 266 278 270 263 271 277 284 288 286 280 295 300 302 303 304 305 306 305 305 304
170 169 171 175 177 176 177 180 177 177 182 186 185 188 195 187 205 208 210 215 219 223 219 246 273 267 271 274 284 284 281 282 286 291 297 300 302 304 304 306 307 307 307
168 171 175 176 176 174 176 176 174 176 180 185 186 190 192 196 208 210 214 219 219 226 229 244 266 273 269 270 269 281 291 278 283 288 289 294 298 303 305 307 308 308 307
168 168 167 168 168 170 176 174 174 175 177 182 189 197 203 210 218 218 219 218 212 221 230 244 263 276 278 282 274 270 286 292 281 268 275 285 291 290 294 299 304 303 302
161 160 167 168 171 179 183 182 173 173 177 182 194 204 214 220 233 241 248 246 233 228 232 236 255 266 273 269 272 276 285 298 297 266 270 283 278 282 285 282 295 301 303
158 162 168 169 176 181 180 183 180 170 176 184 189 194 209 224 236 237 253 259 259 260 260 254 252 258 267 266 272 279 276 279 281 282 282 281 270 276 282 292 302 304 307
162 166 168 170 169 176 178 181 179 167 172 183 190 195 204 220 228 234 231 240 248 254 261 259 244 254 258 263 258 271 281 284 272 269 258 275 275 274 289 290 298 303 312
155 158 161 161 164 174 179 178 168 160 173 189 194 195 204 217 245 256 241 246 260 264 272 275 277 282 288 295 301 304 301 298 298 287 245 258 281 293 285 277 290 305 314
150 146 145 156 163 169 178 177 166 157 170 182 190 208 226 239 257 263 241 237 261 265 259 279 286 294 298 303 310 302 278 285 291 291 268 269 282 309 303 279 277 292 302